Location: Cussy
(47.0410°N, 4.6412°E)
Time: 21:42:17
(UTC+00:00)

SAR-Lupe-1 - Visible Passes

Search period start: 12 April 2021 00:00
Search period end: 22 April 2021 00:00
Orbit: 482 x 483 km, 98.2° (Epoch: 30 March)

Date Brightness Start Highest point End Pass type
(mag) Time Alt. Az. Time Alt. Az. Time Alt. Az.
12 Apr 4.1 18:59:09 10° NNE 19:02:46 89° ESE 19:06:21 10° SSW visible
13 Apr 7.4 20:08:37 10° NNW 20:10:51 16° WNW 20:13:03 10° W visible
14 Apr 6.4 19:43:01 10° N 19:46:08 28° WNW 19:49:14 10° SW visible
15 Apr 4.9 19:17:49 10° N 19:21:21 55° WNW 19:24:52 10° SSW visible
16 Apr 7.8 20:28:26 10° NW 20:29:16 11° WNW 20:30:05 10° WNW visible
17 Apr 7.2 20:02:02 10° NNW 20:04:37 19° WNW 20:07:11 10° WSW visible
18 Apr 6.0 19:36:36 10° N 19:39:52 34° WNW 19:43:08 10° SW visible
19 Apr 4.5 19:11:28 10° N 19:15:03 70° WNW 19:18:36 10° SSW visible
20 Apr 7.5 20:21:22 10° NNW 20:23:01 13° WNW 20:24:41 10° W visible
21 Apr 6.9 19:55:29 10° NNW 19:58:20 23° WNW 20:01:11 10° WSW visible
